LGLR

Details ICAO LGLR (LRA)
Name LARISA
Region Greece
Timezone Europe/Athens (UTC+3.0)
Plans Departing 9
Arriving 12
Stats Elevation 241 ft / 73 m (AMSL)
Location 39.649618° 22.464939°
Runways 2
Magnetic Variation 4.507° E
Sunrise 2018-05-25 03:09:43 UTC / 2018-05-25 06:09:43 Local
Sunset 2018-05-25 17:47:18 UTC / 2018-05-25 20:47:18 Local
Advertisement - Login to hide

Runways

ID Width Length Bearing (true) Bearing (mag) Surface Threshold Offset Overrun Length
08 148 ft / 45 m 9,691 ft / 2,954 m 78.75° 74.24° Asphalt 0 ft / 0 m 0 ft / 0 m
08R 98 ft / 30 m 10,749 ft / 3,276 m 79.09° 74.58° Asphalt 879 ft / 268 m 0 ft / 0 m
26 148 ft / 45 m 9,691 ft / 2,954 m 258.77° 254.26° Asphalt 0 ft / 0 m 0 ft / 0 m
26L 98 ft / 30 m 10,749 ft / 3,276 m 259.12° 254.61° Asphalt 1,247 ft / 380 m 853 ft / 260 m

Map

Weather


0- 5 10 15 20 25 30 35+ Temperature / ° C

Clouds and Precipitation
Forecast for 2018-05-25 06:00 UTC. Updated 9 minutes ago

Ground ~20,000 ft ~40,000 ft Winds

METAR

LGLR 250450Z 00000KT 9999 FEW030 SCT080 20/15 Q1013 BLU

TAF

Not found

Frequencies

Tower 122.10 MHz TWR
Approach 120.55 MHz APP
Tower 120.55 MHz TWR
Approach 122.10 MHz APP
Warning: Do not use this data for real-world aviation or navigation. No guarantee of current accuracy is given.